Starlink 32831

operational
NORAD ID: 62860 Int'l Des: 2025-022 Owner: SPXS Country: US Constellation: starlink
LEOCIRCULAR

About Starlink 32831

Description loading...

Live Position

Loading 3D Globe...

Upcoming Passes

Altitude History

Altitude vs Time

uPlot chart will show altitude changes over time

Two-Line Element Set

1 62860U 25022G 25308.49988280 .00028923 00000-0 98613-3 0 9993
2 62860 53.1603 351.0649 0001806 100.6249 259.4955 15.30157297 42721
Epoch: Nov 4, 2025 • Age: 16 hours

Current Status

Altitude 479.2 km
Velocity 7.63 km/s
Sub-Earth Point -12.61°S, 120.25°W
Launch Date Feb 2, 2025
Age 0.7 years
Type internet

Technical Details

Classification Payload
Mass 730.00 kg
Dry Mass 700.00 kg
Total Mass 730.00 kg
Length 0.30 m
Diameter 4.10 m
Span 29.00 m
Shape Box + pan
Manufacturer SPXS
Bus Type Starlink V2M
Phase Status In Orbit
Owner/State SPXS/US

Large Constellations

Loading constellations...